SCP
-0 -0 0 -0 -0 -0 0 0 0 -0 -0 -0 -0 -0 -0 -0 -0 -0 -0 -0 -0 -0 -0 -0 -0 -0 -0 -0 -0 -0 -0 0 -0 0 0 0 0 0 -0 -0 0 0 0
0 -0 0 0 0 -0 0 0 0 -0 -0 -0 -0 -0 -0 -0 -0 -0 -0 -0 -0 -0 -0 -0 -0 -0 -0 -0 -0 -0 -0 -0 -0 -0 -0 -0 -0 0 -0 -0 0 -0 -0
0 0 0 -0 0 0 0 0 0 0 -0 -0 -0 -0 -0 -0 -0 -0 -0 -0 -0 -0 -0 -0 -0 -0 -0 -0 -0 -0 -0 -0 -0 0 -0 0 -0 -0 0 -0 -0 -0 0
-0 0 0 -0 -0 0 0 0 0 0 0 0 0 0 0 0 0 0 0 0 0 0 0 0 0 -0 -0 -0 -0 -0 -0 -0 -0 -0 -0 0 -0 -0 -0 -0 0 0 0
-0 -0 0 0 -0 0 0 0 0 0 0 0 0 0 0 0 0 0 0 0 0 0 0 0 0 0 0 0 0 0 0 0 -0 0 -0 -0 -0 -0 -0 -0 -0 0 -0
0 -0 0 0 0 0 0 0 0 0 0 0 0 0 0 0 0 0 0 0 0 0 0 0 0 0 0 0 0 0 -0 -0 -0 -0 -0 0 -0 -0 -0 0 0 0 0
-0 -0 -0 -0 0 0 0 0 0 0 0 0 0 0 0 0 0 0 0 0 0 0 0 0 0 0 0 0 0 0 0 -0 -0 -0 0 -0 0 -0 -0 0 0 0 0
-0 -0 0 -0 -0 0 0 0 0 0 0 0 0 0 0 0 0 0 0 0 0 0 0 0 0 0 0 0 0 0 0 0 -0 -0 -0 0 0 0 0 0 0 0 0
0 0 -0 0 0 -0 -0 0 0 0 0 0 0 0 0 0 0 0 0 0 0 0 0 0 0 0 0 0 0 0 0 0 -0 0 0 0 -0 0 0 0 0 0 0
0 0 0 -0 0 -0 -0 -0 0 0 0 0 0 0 0 0 0 0 0 0 0 0 0 0 0 0 0 0 0 0 0 0 0 0 0 0 0 0 0 0 0 0 0
0 0 0 0 -0 -0 0 -0 -0 -0 -0 -0 -0 -0 -0 -0 0 0 0 1 0 0 0 0 0 0 0 0 0 0 0 0 0 0 0 0 0 0 0 0 0 0 0
0 0 0 0 0 0 -0 -0 -0 -0 -0 -0 -0 0 -0 -0 0 0 0 0 0 0 0 0 0 0 0 0 0 0 0 0 0 0 0 0 0 0 0 0 0 0 0
0 0 0 0 0 0 0 0 0 0 0 0 0 0 -0 0 0 0 1 1 1 0 0 0 0 0 0 0 0 0 0 0 0 0 0 0 0 0 0 0 0 0 0
0 0 0 0 0 1 1 1 0 0 0 0 0 0 0 0 1 1 2 2 2 1 1 1 1 1 1 0 0 0 0 0 1 0 0 0 0 0 0 0 0 0 0
0 0 1 1 1 1 1 0 0 0 0 0 0 0 0 0 0 0 1 1 1 2 2 1 1 1 1 1 1 1 0 1 1 1 1 1 0 0 0 0 0 1 0
1 1 1 1 1 0 0 0 0 0 0 0 0 0 0 0 0 0 0 0 0 1 1 1 1 1 1 1 1 1 1 1 1 1 1 1 1 0 0 0 1 1 1
1 1 1 0 0 0 0 0 0 0 0 0 0 0 0 0 0 0 0 0 0 0 0 0 1 1 2 1 1 1 1 0 1 1 1 1 1 0 0 0 0 1 1
1 1 1 0 0 0 0 0 0 0 0 0 0 0 0 0 0 0 0 0 0 0 0 0 0 0 0 0 0 0 0 0 0 1 1 0 1 0 1 0 1 1 1
1 0 0 0 0 0 0 0 0 0 0 0 0 0 0 0 0 0 0 0 0 0 0 0 0 1 0 0 0 0 0 0 0 0 1 1 1 1 1 1 1 1 1
0 0 0 0 0 0 0 0 0 0 0 0 0 0 0 0 0 0 0 0 0 0 0 0 0 0 0 0 0 0 0 0 0 1 1 1 1 1 1 1 1 1 1
0 0 0 0 0 0 0 0 0 0 0 0 0 0 0 0 0 0 0 0 0 0 0 0 0 0 0 0 0 0 0 0 1 1 1 1 1 1 1 1 1 1 1
0 0 0 0 0 0 0 0 0 0 0 0 0 0 0 0 0 0 0 0 0 0 0 0 0 0 0 0 1 0 0 0 0 1 1 1 1 1 1 1 1 1 1
0 0 1 1 1 1 1 0 0 0 0 0 0 0 0 0 0 0 0 0 0 0 0 0 0 0 0 0 0 1 0 0 0 1 0 1 1 1 1 0 1 1 1
0 0 0 0 0 0 0 0 0 0 0 0 0 0 0 0 0 0 0 0 0 0 0 0 0 0 0 0 0 0 1 1 1 0 0 1 1 1 0 0 0 0 0
0 0 0 0 0 0 0 0 0 0 0 0 0 0 0 0 0 0 0 0 0 0 0 0 0 0 0 0 0 0 0 0 0 0 0 0 0 0 0 0 0 0 0
0 0 0 0 0 0 0 0 0 0 0 0 0 0 0 0 0 0 0 0 0 0 0 0 0 0 0 0 0 0 0 0 0 0 0 0 0 0 0 0 0 0 0
Wind_Speed_500mb
26 23 18 18 28 27 34 41 39 37 35 32 27 25 25 25 22 21 21 21 21 21 21 21 22 21 16 12 19 26 30 36 42 44 44 44 42 41 41 41 30 24 25
26 27 23 21 25 30 36 40 39 38 34 29 25 23 24 23 20 18 18 18 17 17 18 18 18 18 17 15 17 22 24 26 34 38 41 41 40 39 37 33 28 28 27
23 21 27 25 25 31 34 39 39 36 32 27 23 22 22 21 19 17 15 14 14 13 13 13 14 14 14 13 15 18 20 23 25 29 37 15 24 34 32 30 29 28 28
18 19 19 25 27 30 35 36 36 34 30 25 22 21 21 20 18 15 13 11 9 7 7 7 8 9 9 9 10 11 13 15 18 22 19 13 12 30 27 25 24 24 25
19 17 19 22 26 29 32 35 35 33 30 25 21 20 19 18 16 13 9 7 5 3 1 2 3 5 6 6 8 9 8 10 11 16 8 7 5 20 23 23 22 22 24
18 15 23 23 24 26 30 32 33 31 30 26 24 21 19 17 15 12 9 6 6 6 5 5 5 7 7 9 10 11 12 12 9 10 10 11 3 13 17 18 17 16 18
19 16 14 20 24 28 29 29 28 30 29 28 26 24 20 16 12 11 11 10 11 10 10 10 10 10 11 12 14 15 15 14 9 11 12 9 12 12 13 13 14 15 16
19 16 12 19 27 27 24 23 23 24 23 24 23 22 21 18 17 17 16 15 15 15 15 15 15 15 16 17 17 20 21 19 14 15 14 15 23 16 14 13 13 13 14
19 14 15 16 25 28 27 24 22 19 19 20 20 22 20 20 20 20 20 20 20 20 19 19 20 20 21 22 23 23 24 26 21 18 20 18 31 22 21 19 17 13 13
20 17 17 17 21 24 22 20 17 14 13 12 14 15 15 16 20 21 22 23 24 24 24 23 24 25 26 26 27 28 28 29 28 22 26 23 32 26 26 26 24 21 16
20 20 22 22 24 25 21 20 16 12 9 7 10 10 13 15 19 21 23 24 25 26 26 27 27 28 29 31 31 32 33 28 25 28 27 36 30 28 29 32 29 28 26
19 20 23 23 20 23 22 20 15 11 6 10 8 8 9 16 17 18 22 24 27 27 26 25 25 26 28 25 24 33 29 25 28 31 30 42 37 32 30 34 36 34 33
14 13 14 16 16 15 18 17 12 12 11 12 10 12 17 17 18 18 18 20 23 23 24 24 20 20 19 21 23 24 24 23 24 30 33 46 39 36 35 36 39 40 38
7 11 18 16 21 24 23 21 17 14 13 8 11 13 18 13 18 21 20 21 22 23 24 22 21 23 21 24 25 27 28 28 26 26 28 48 44 39 38 36 39 42 42
5 7 12 18 25 28 28 27 24 17 9 10 12 13 16 16 24 25 22 21 23 24 27 29 29 29 26 27 27 29 30 32 29 29 30 41 40 42 42 42 40 42 45
15 10 22 21 26 26 29 22 18 15 10 7 5 8 12 14 17 21 20 17 18 20 23 27 32 35 35 35 35 35 34 32 32 33 32 32 40 35 39 48 48 44 46
21 25 23 25 25 22 18 16 14 11 7 2 4 9 12 14 14 13 12 14 18 24 28 27 29 33 36 39 41 39 38 38 39 35 35 35 35 40 38 37 41 44 45
14 24 22 23 21 19 19 17 14 10 4 3 7 11 12 15 14 13 11 15 20 17 20 23 25 34 39 44 46 45 43 41 40 41 36 35 38 38 40 42 42 44 49
11 20 25 21 23 24 21 19 14 8 4 6 7 8 11 13 16 17 18 20 19 20 17 19 21 22 27 35 42 45 46 45 43 41 38 35 34 38 38 41 43 48 51
5 15 19 21 22 22 20 13 8 7 6 6 4 5 10 12 16 19 21 25 24 22 21 27 29 24 25 27 34 39 42 41 42 42 34 32 29 32 34 35 42 44 45
7 6 15 16 18 17 9 9 8 7 7 6 9 14 17 16 19 25 17 28 28 26 30 30 29 25 21 21 29 32 38 41 44 41 35 38 34 32 39 43 41 36 43
16 12 9 3 4 4 7 11 12 11 13 13 16 24 23 25 27 27 30 27 31 24 35 35 34 24 22 17 19 28 37 35 34 29 25 27 24 23 25 30 32 35 39
18 13 8 2 5 8 15 11 15 19 23 23 23 24 27 29 37 41 41 38 39 39 21 37 27 28 20 22 18 16 23 33 31 17 22 17 24 24 37 34 35 40 38
22 21 19 20 24 26 27 27 30 28 29 34 37 38 40 40 44 45 49 46 45 33 35 30 33 28 22 22 22 16 22 27 24 36 29 22 23 31 35 39 41 41 37
21 23 24 25 27 29 31 36 37 41 49 48 42 44 46 51 48 48 45 47 51 45 39 37 31 29 20 19 22 23 24 26 27 32 42 40 16 36 35 34 34 32 29
27 30 33 35 35 33 31 35 42 52 55 65 66 74 55 50 47 43 44 47 47 43 41 32 31 26 25 25 19 21 23 27 29 30 32 37 40 42 42 42 38 31 24
Wind_Direction_500mb
173 171 160 156 155 156 162 163 164 158 146 140 140 136 136 137 131 120 114 114 109 100 93 89 86 88 92 72 48 50 52 51 50 51 56 58 61 65 75 80 62 69 71
171 167 159 159 153 158 163 167 168 164 156 150 147 143 143 141 135 127 119 115 108 105 102 94 85 82 80 74 57 50 48 45 45 43 52 48 52 61 70 83 85 70 66
157 164 162 160 157 162 162 168 171 171 168 162 157 155 152 148 144 138 129 119 112 107 104 97 87 76 71 63 58 52 49 48 41 43 64 71 45 49 59 68 70 69 65
162 163 165 165 161 167 170 170 174 176 177 172 168 165 160 157 152 147 141 131 122 113 102 92 81 70 57 45 44 40 36 35 35 46 48 50 57 36 43 55 62 65 67
156 164 179 172 166 167 173 180 178 177 179 180 178 174 169 164 160 157 155 157 158 151 127 35 24 28 19 13 357 359 3 6 14 43 49 36 47 15 28 33 46 51 55
153 161 178 173 174 171 168 176 182 179 184 182 182 180 177 175 173 173 181 203 223 232 249 279 301 317 324 326 328 326 330 336 352 13 322 305 91 338 11 22 26 33 41
154 161 169 169 178 175 167 168 172 176 177 181 181 181 187 189 197 207 211 224 242 248 252 264 280 292 297 299 301 303 306 313 322 278 273 265 262 308 335 353 1 11 18
146 143 174 168 171 177 168 163 167 170 174 181 186 192 200 209 217 226 232 235 242 248 250 255 265 278 286 290 289 288 290 294 294 283 268 264 255 277 287 306 325 340 353
148 160 155 167 177 174 172 170 159 162 179 185 197 207 216 224 232 238 243 246 249 250 251 255 260 266 272 278 282 282 281 283 280 264 265 262 262 278 268 273 285 302 318
147 156 155 161 166 174 180 167 165 164 180 189 207 216 229 240 247 247 249 250 252 252 253 252 255 260 264 267 270 274 276 274 274 266 270 261 262 273 269 266 270 279 288
160 170 168 162 165 172 176 174 176 165 175 204 213 234 244 252 250 259 260 262 260 261 264 266 265 266 269 269 270 271 271 271 268 266 263 259 270 273 269 265 267 270 274
175 179 175 172 168 169 170 168 151 138 144 193 200 231 247 240 245 246 257 261 259 261 262 266 269 270 266 264 276 288 269 264 265 265 265 262 271 275 274 269 266 268 267
218 190 186 176 166 164 172 163 166 172 184 204 212 240 245 253 266 268 266 275 270 267 266 273 275 275 267 253 254 258 259 262 267 266 263 266 268 271 276 274 271 266 266
175 180 178 188 194 194 195 192 206 201 213 221 245 266 274 284 274 259 259 256 270 269 259 258 261 259 253 256 256 255 261 257 263 271 268 268 267 264 267 274 275 273 270
191 200 174 207 217 223 221 221 220 217 223 249 265 278 282 280 275 280 278 278 260 260 264 267 267 267 266 267 267 269 268 270 264 266 270 277 278 262 261 263 269 271 268
248 228 230 228 223 224 222 222 221 231 235 236 274 312 312 301 294 286 290 290 287 282 280 270 265 264 267 268 267 266 266 266 270 269 270 274 285 275 269 270 260 269 270
252 240 246 235 231 219 212 212 220 224 215 243 311 307 314 315 313 299 299 300 296 290 292 286 281 277 273 268 268 267 268 270 272 268 269 273 276 281 276 277 260 269 274
250 270 247 238 216 206 209 210 211 203 175 256 300 308 318 317 318 310 313 296 292 307 303 302 289 276 272 270 270 267 267 268 268 269 272 269 268 269 279 273 267 267 270
246 268 249 219 209 209 208 209 205 207 208 268 290 313 312 323 331 329 317 310 302 293 306 305 305 294 281 272 272 271 269 267 266 269 265 266 270 267 265 277 275 271 263
193 256 223 216 219 218 219 217 225 256 277 285 299 311 334 343 340 346 337 335 324 310 302 294 293 292 300 290 277 273 268 266 266 267 263 262 268 266 269 271 278 274 272
49 252 225 228 226 219 209 211 243 234 245 257 268 288 307 305 309 316 320 319 319 317 315 306 300 301 297 290 289 285 279 267 262 265 269 274 268 272 270 277 279 274 272
47 48 49 42 265 276 289 265 249 254 258 255 269 279 289 294 299 302 302 303 304 308 309 309 309 303 295 291 291 284 284 280 258 264 268 270 263 265 276 288 292 283 275
25 21 17 323 251 275 251 291 283 275 277 286 284 288 288 283 295 294 295 293 295 297 294 306 306 310 296 286 283 281 285 282 306 269 281 257 272 282 279 286 289 291 287
21 13 5 332 316 312 301 290 282 284 283 278 282 286 282 285 283 281 282 278 282 278 280 283 291 300 304 293 282 270 265 272 288 287 283 272 282 277 273 286 290 288 288
358 350 346 342 331 321 312 297 288 281 277 279 285 288 291 290 284 274 262 257 265 268 266 265 275 283 291 291 292 283 275 280 284 277 279 280 273 301 292 289 291 291 293
331 329 324 320 313 308 305 300 295 291 287 286 285 284 287 286 280 275 269 256 249 242 246 253 259 276 277 282 290 295 283 276 271 274 282 280 285 285 286 293 287 291 290
Wind_Speed_850mb
26 23 18 18 28 27 34 41 39 37 35 32 27 25 25 25 22 21 21 21 21 21 21 21 22 21 16 12 19 26 30 36 42 44 44 44 42 41 41 41 30 24 25
26 27 23 21 25 30 36 40 39 38 34 29 25 23 24 23 20 18 18 18 17 17 18 18 18 18 17 15 17 22 24 26 34 38 41 41 40 39 37 33 28 28 27
23 21 27 25 25 31 34 39 39 36 32 27 23 22 22 21 19 17 15 14 14 13 13 13 14 14 14 13 15 18 20 23 25 29 37 15 24 34 32 30 29 28 28
18 19 19 25 27 30 35 36 36 34 30 25 22 21 21 20 18 15 13 11 9 7 7 7 8 9 9 9 10 11 13 15 18 22 19 13 12 30 27 25 24 24 25
19 17 19 22 26 29 32 35 35 33 30 25 21 20 19 18 16 13 9 7 5 3 1 2 3 5 6 6 8 9 8 10 11 16 8 7 5 20 23 23 22 22 24
18 15 23 23 24 26 30 32 33 31 30 26 24 21 19 17 15 12 9 6 6 6 5 5 5 7 7 9 10 11 12 12 9 10 10 11 3 13 17 18 17 16 18
19 16 14 20 24 28 29 29 28 30 29 28 26 24 20 16 12 11 11 10 11 10 10 10 10 10 11 12 14 15 15 14 9 11 12 9 12 12 13 13 14 15 16
19 16 12 19 27 27 24 23 23 24 23 24 23 22 21 18 17 17 16 15 15 15 15 15 15 15 16 17 17 20 21 19 14 15 14 15 23 16 14 13 13 13 14
19 14 15 16 25 28 27 24 22 19 19 20 20 22 20 20 20 20 20 20 20 20 19 19 20 20 21 22 23 23 24 26 21 18 20 18 31 22 21 19 17 13 13
20 17 17 17 21 24 22 20 17 14 13 12 14 15 15 16 20 21 22 23 24 24 24 23 24 25 26 26 27 28 28 29 28 22 26 23 32 26 26 26 24 21 16
20 20 22 22 24 25 21 20 16 12 9 7 10 10 13 15 19 21 23 24 25 26 26 27 27 28 29 31 31 32 33 28 25 28 27 36 30 28 29 32 29 28 26
19 20 23 23 20 23 22 20 15 11 6 10 8 8 9 16 17 18 22 24 27 27 26 25 25 26 28 25 24 33 29 25 28 31 30 42 37 32 30 34 36 34 33
14 13 14 16 16 15 18 17 12 12 11 12 10 12 17 17 18 18 18 20 23 23 24 24 20 20 19 21 23 24 24 23 24 30 33 46 39 36 35 36 39 40 38
7 11 18 16 21 24 23 21 17 14 13 8 11 13 18 13 18 21 20 21 22 23 24 22 21 23 21 24 25 27 28 28 26 26 28 48 44 39 38 36 39 42 42
5 7 12 18 25 28 28 27 24 17 9 10 12 13 16 16 24 25 22 21 23 24 27 29 29 29 26 27 27 29 30 32 29 29 30 41 40 42 42 42 40 42 45
15 10 22 21 26 26 29 22 18 15 10 7 5 8 12 14 17 21 20 17 18 20 23 27 32 35 35 35 35 35 34 32 32 33 32 32 40 35 39 48 48 44 46
21 25 23 25 25 22 18 16 14 11 7 2 4 9 12 14 14 13 12 14 18 24 28 27 29 33 36 39 41 39 38 38 39 35 35 35 35 40 38 37 41 44 45
14 24 22 23 21 19 19 17 14 10 4 3 7 11 12 15 14 13 11 15 20 17 20 23 25 34 39 44 46 45 43 41 40 41 36 35 38 38 40 42 42 44 49
11 20 25 21 23 24 21 19 14 8 4 6 7 8 11 13 16 17 18 20 19 20 17 19 21 22 27 35 42 45 46 45 43 41 38 35 34 38 38 41 43 48 51
5 15 19 21 22 22 20 13 8 7 6 6 4 5 10 12 16 19 21 25 24 22 21 27 29 24 25 27 34 39 42 41 42 42 34 32 29 32 34 35 42 44 45
7 6 15 16 18 17 9 9 8 7 7 6 9 14 17 16 19 25 17 28 28 26 30 30 29 25 21 21 29 32 38 41 44 41 35 38 34 32 39 43 41 36 43
16 12 9 3 4 4 7 11 12 11 13 13 16 24 23 25 27 27 30 27 31 24 35 35 34 24 22 17 19 28 37 35 34 29 25 27 24 23 25 30 32 35 39
18 13 8 2 5 8 15 11 15 19 23 23 23 24 27 29 37 41 41 38 39 39 21 37 27 28 20 22 18 16 23 33 31 17 22 17 24 24 37 34 35 40 38
22 21 19 20 24 26 27 27 30 28 29 34 37 38 40 40 44 45 49 46 45 33 35 30 33 28 22 22 22 16 22 27 24 36 29 22 23 31 35 39 41 41 37
21 23 24 25 27 29 31 36 37 41 49 48 42 44 46 51 48 48 45 47 51 45 39 37 31 29 20 19 22 23 24 26 27 32 42 40 16 36 35 34 34 32 29
27 30 33 35 35 33 31 35 42 52 55 65 66 74 55 50 47 43 44 47 47 43 41 32 31 26 25 25 19 21 23 27 29 30 32 37 40 42 42 42 38 31 24
Wind_Direction_850mb
173 171 160 156 155 156 162 163 164 158 146 140 140 136 136 137 131 120 114 114 109 100 93 89 86 88 92 72 48 50 52 51 50 51 56 58 61 65 75 80 62 69 71
171 167 159 159 153 158 163 167 168 164 156 150 147 143 143 141 135 127 119 115 108 105 102 94 85 82 80 74 57 50 48 45 45 43 52 48 52 61 70 83 85 70 66
157 164 162 160 157 162 162 168 171 171 168 162 157 155 152 148 144 138 129 119 112 107 104 97 87 76 71 63 58 52 49 48 41 43 64 71 45 49 59 68 70 69 65
162 163 165 165 161 167 170 170 174 176 177 172 168 165 160 157 152 147 141 131 122 113 102 92 81 70 57 45 44 40 36 35 35 46 48 50 57 36 43 55 62 65 67
156 164 179 172 166 167 173 180 178 177 179 180 178 174 169 164 160 157 155 157 158 151 127 35 24 28 19 13 357 359 3 6 14 43 49 36 47 15 28 33 46 51 55
153 161 178 173 174 171 168 176 182 179 184 182 182 180 177 175 173 173 181 203 223 232 249 279 301 317 324 326 328 326 330 336 352 13 322 305 91 338 11 22 26 33 41
154 161 169 169 178 175 167 168 172 176 177 181 181 181 187 189 197 207 211 224 242 248 252 264 280 292 297 299 301 303 306 313 322 278 273 265 262 308 335 353 1 11 18
146 143 174 168 171 177 168 163 167 170 174 181 186 192 200 209 217 226 232 235 242 248 250 255 265 278 286 290 289 288 290 294 294 283 268 264 255 277 287 306 325 340 353
148 160 155 167 177 174 172 170 159 162 179 185 197 207 216 224 232 238 243 246 249 250 251 255 260 266 272 278 282 282 281 283 280 264 265 262 262 278 268 273 285 302 318
147 156 155 161 166 174 180 167 165 164 180 189 207 216 229 240 247 247 249 250 252 252 253 252 255 260 264 267 270 274 276 274 274 266 270 261 262 273 269 266 270 279 288
160 170 168 162 165 172 176 174 176 165 175 204 213 234 244 252 250 259 260 262 260 261 264 266 265 266 269 269 270 271 271 271 268 266 263 259 270 273 269 265 267 270 274
175 179 175 172 168 169 170 168 151 138 144 193 200 231 247 240 245 246 257 261 259 261 262 266 269 270 266 264 276 288 269 264 265 265 265 262 271 275 274 269 266 268 267
218 190 186 176 166 164 172 163 166 172 184 204 212 240 245 253 266 268 266 275 270 267 266 273 275 275 267 253 254 258 259 262 267 266 263 266 268 271 276 274 271 266 266
175 180 178 188 194 194 195 192 206 201 213 221 245 266 274 284 274 259 259 256 270 269 259 258 261 259 253 256 256 255 261 257 263 271 268 268 267 264 267 274 275 273 270
191 200 174 207 217 223 221 221 220 217 223 249 265 278 282 280 275 280 278 278 260 260 264 267 267 267 266 267 267 269 268 270 264 266 270 277 278 262 261 263 269 271 268
248 228 230 228 223 224 222 222 221 231 235 236 274 312 312 301 294 286 290 290 287 282 280 270 265 264 267 268 267 266 266 266 270 269 270 274 285 275 269 270 260 269 270
252 240 246 235 231 219 212 212 220 224 215 243 311 307 314 315 313 299 299 300 296 290 292 286 281 277 273 268 268 267 268 270 272 268 269 273 276 281 276 277 260 269 274
250 270 247 238 216 206 209 210 211 203 175 256 300 308 318 317 318 310 313 296 292 307 303 302 289 276 272 270 270 267 267 268 268 269 272 269 268 269 279 273 267 267 270
246 268 249 219 209 209 208 209 205 207 208 268 290 313 312 323 331 329 317 310 302 293 306 305 305 294 281 272 272 271 269 267 266 269 265 266 270 267 265 277 275 271 263
193 256 223 216 219 218 219 217 225 256 277 285 299 311 334 343 340 346 337 335 324 310 302 294 293 292 300 290 277 273 268 266 266 267 263 262 268 266 269 271 278 274 272
49 252 225 228 226 219 209 211 243 234 245 257 268 288 307 305 309 316 320 319 319 317 315 306 300 301 297 290 289 285 279 267 262 265 269 274 268 272 270 277 279 274 272
47 48 49 42 265 276 289 265 249 254 258 255 269 279 289 294 299 302 302 303 304 308 309 309 309 303 295 291 291 284 284 280 258 264 268 270 263 265 276 288 292 283 275
25 21 17 323 251 275 251 291 283 275 277 286 284 288 288 283 295 294 295 293 295 297 294 306 306 310 296 286 283 281 285 282 306 269 281 257 272 282 279 286 289 291 287
21 13 5 332 316 312 301 290 282 284 283 278 282 286 282 285 283 281 282 278 282 278 280 283 291 300 304 293 282 270 265 272 288 287 283 272 282 277 273 286 290 288 288
358 350 346 342 331 321 312 297 288 281 277 279 285 288 291 290 284 274 262 257 265 268 266 265 275 283 291 291 292 283 275 280 284 277 279 280 273 301 292 289 291 291 293
331 329 324 320 313 308 305 300 295 291 287 286 285 284 287 286 280 275 269 256 249 242 246 253 259 276 277 282 290 295 283 276 271 274 282 280 285 285 286 293 287 291 290